Location: Gorlice
(49.6633°N, 21.1693°E)
Time: 21:26:08
(UTC+01:00)

ISS - Pass Details

Date: 27 January 2019
Orbit: 403 x 411 km, 51.6° (Epoch: 23 February)

Event Time Altitude Azimuth Distance (km) Brightness Sun altitude
Rises 18:20:31 0° 253° (WSW) 2,332 1.6 -19.1°
Reaches altitude 10° 18:22:36 10° 254° (WSW) 1,474 0.2 -19.4°
Enters shadow 18:25:54 85° 338° (NNW) 417 -3.9 -20.0°
